www.pogodaiklimat.ru

Погода и климат >> Архив погоды >> Канарские Острова >> Тенерифе


ПОГОДА на Тенерифе

  • Прогноз погоды на Тенерифе
  • Монитор погоды на Тенерифе

АРХИВ ПОГОДЫ на Тенерифе

Время (UTC), дата Ветер
(напр.,м/с)
 
Видим.   Явления Облачность Т
(С)
Тd
(С)
f
(%)
Тe
(С)
Тes
(С)
Комфортность P
(гПа)
Po
(гПа)
Тmin
(С)
Tmax
(С)
R
(мм)
R24
(мм)
S
(см)
10 10.07 СЗ 8 23 км н/о +17.1 +16.3 95 +16 +16 1018.2 947.8
11 10.07 СЗ 8 30 км н/о +19.2 +16.2 83 +20 +20 1017.9 948.0
12 10.07 СЗ 9 30 км [макс. диам. градин 0 мм] 9/9 200 м
[Cu Sc]
+19.5 +15.2 76 +21 +21 комфорт 1017.9 948.1 0.6
13 10.07 СЗ 8 30 км н/о +20.6 +15.3 72 +23 +23 комфорт 1017.3 947.8
14 10.07 СЗ 9 30 км н/о +20.7 +13.6 64 +23 +23 комфорт 1016.9 947.4
15 10.07 СЗ 10 30 км [макс. диам. градин 0 мм] 4/4 300 м
[]
+20.8 +14.2 66 +23 +23 комфорт 1016.1 946.7
16 10.07 СЗ 11 30 км н/о +20.1 +13.8 67 +21 +21 комфорт 1015.8 946.2
17 10.07 СЗ 11 30 км н/о +19.4 +15.3 77 +20 +20 1015.9 946.2
18 10.07 СЗ 11 30 км [макс. диам. градин 0 мм] 4/4 300 м
[Cu Sc Ac cuf]
+19.3 +14.0 71 +20 +20 1015.8 946.0 +21.8 0.6
19 10.07 З 12 30 км н/о +17.9 +14.5 80 +16 +16 1016.0 945.9
20 10.07 СЗ 9 30 км н/о +17.1 +15.4 90 +16 +16 1016.6 946.3
21 10.07 СЗ 11 30 км н/о +16.6 +15.3 92 +15 +15 1017.3 946.8
22 10.07 СЗ 8 30 км н/о +16.7 +15.5 93 +15 +15 1017.9 947.4
23 10.07 СЗ 7 30 км н/о +16.6 +15.3 92 +15 +15 1018.3 947.8
00 11.07 СЗ 7 30 км н/о +16.3 +15.2 93 +15 +15 1018.4 947.8
01 11.07 З 8 29 км н/о +16.5 +15.4 93 +15 +15 1017.8 947.3
02 11.07 СЗ 7 14 км н/о +16.4 +15.8 96 +15 +15 1017.3 946.8
03 11.07 СЗ 6 30 км н/о +16.3 +15.2 93 +15 +15 1017.0 946.5
04 11.07 СЗ 5 30 км н/о +16.4 +14.9 91 +15 +15 1016.5 946.0
05 11.07 З 9 28 км н/о +16.4 +15.3 93 +15 +15 1016.1 945.7
06 11.07 СЗ 8 30 км [макс. диам. градин 0 мм] 9/9 100 м
[Sc]
+16.2 +15.1 93 +15 +15 1016.6 946.1 +16.0 0.6
07 11.07 СЗ 8 30 км н/о +16.4 +14.9 91 +15 +15 1016.8 946.3
08 11.07 З 6 30 км н/о +16.9 +14.3 85 +16 +16 1017.3 946.9
09 11.07 СЗ 6 30 км [макс. диам. градин 0 мм] 9/9 300 м
[Sc]
+17.9 +14.4 80 +17 +18 1017.6 947.4
10 11.07 З 7 30 км н/о +19.4 +14.2 72 +20 +20 1017.2 947.4
11 11.07 СЗ 6 30 км н/о +19.4 +15.1 76 +21 +21 комфорт 1017.3 947.5
12 11.07 СЗ 7 30 км [макс. диам. градин 0 мм] 6/6 300 м
[Cu Sc]
+20.9 +14.2 66 +23 +26 комфорт 1016.9 947.4
13 11.07 СЗ 9 30 км н/о +19.9 +15.3 75 +21 +21 комфорт 1016.9 947.2
14 11.07 СЗ 8 25 км н/о +19.8 +16.1 79 +22 +22 комфорт 1016.6 947.0
15 11.07 СЗ 9 30 км [макс. диам. градин 0 мм] 4/4 300 м
[Sc]
+21.3 +15.2 68 +24 +25 комфорт 1015.9 946.6
16 11.07 СЗ 9 30 км н/о +22.0 +13.8 60 +25 +25 комфорт 1015.7 946.6
17 11.07 СЗ 10 30 км н/о +20.3 +14.1 68 +22 +22 комфорт 1015.9 946.4
18 11.07 СЗ 9 30 км [макс. диам. градин 0 мм] 4/4 300 м
[Cu Sc]
+19.2 +14.4 74 +20 +20 1016.3 946.5 +22.2
19 11.07 СЗ 9 27 км н/о +18.2 +15.4 84 +17 +17 1016.7 946.7
20 11.07 СЗ 9 21 км н/о +17.5 +15.7 89 +16 +16 1017.3 947.1
21 11.07 З 7 19 км н/о +17.1 +15.7 91 +16 +16 1018.1 947.7
22 11.07 З 7 19 км н/о +17.0 +15.8 93 +16 +16 1018.5 948.1
23 11.07 СЗ 8 26 км н/о +17.1 +15.5 90 +16 +16 1018.7 948.3
00 12.07 СЗ 7 19 км н/о +17.2 +15.9 92 +16 +16 1018.5 948.1
01 12.07 З 7 22 км н/о +16.4 +15.3 93 +15 +15 1018.3 947.7
02 12.07 З 7 30 км н/о +16.4 +14.6 89 +15 +15 1018.0 947.4
03 12.07 З 6 30 км н/о +16.0 +14.0 88 +15 +15 1017.9 947.2
04 12.07 З 6 30 км н/о +15.5 +13.5 88 +14 +14 1017.9 947.1
05 12.07 З 7 30 км н/о +15.1 +13.3 89 +13 +13 1017.9 947.0
06 12.07 З 5 29 км [макс. диам. градин 0 мм] 1/1 200 м
[Cu Sc]
+14.6 +13.5 93 +13 +13 1018.6 947.5 +14.6
07 12.07 З 5 30 км н/о +16.1 +14.8 92 +15 +15 1018.6 947.9
08 12.07 З 5 30 км н/о +17.9 +15.4 85 +17 +17 1018.9 948.6
09 12.07 СЗ 6 30 км [макс. диам. градин 0 мм] 3/3 200 м
[Cu Sc]
+19.0 +15.2 79 +20 +22 1018.9 948.9
10 12.07 СЗ 6 30 км н/о +20.5 +15.2 72 +23 +23 комфорт 1018.5 948.9
11 12.07 СЗ 6 30 км н/о +20.3 +16.5 79 +23 +23 комфорт 1018.9 949.2
12 12.07 СЗ 6 30 км [макс. диам. градин 0 мм] 5/5 200 м
[Cu Sc]
+20.9 +15.7 72 +24 +28 комфорт 1018.6 949.1
13 12.07 СЗ 6 30 км н/о +21.9 +15.9 69 +26 +26 душно 1018.2 948.9
14 12.07 З 6 30 км н/о +22.2 +16.7 71 +27 +27 душно 1017.6 948.5
15 12.07 СЗ 5 30 км [макс. диам. градин 0 мм] 1/1 300 м
[Cu Sc]
+22.7 +16.6 68 +27 +35 душно 1017.4 948.4
16 12.07 З 6 30 км н/о +22.5 +16.3 68 +27 +27 душно 1017.3 948.2
17 12.07 З 7 30 км н/о +22.0 +15.5 67 +26 +26 душно 1017.3 948.1
18 12.07 З 6 30 км [макс. диам. градин 0 мм] 1/1 300 м
[Cu Sc]
+20.6 +14.9 70 +23 +24 комфорт 1018.0 948.4 +23.6
19 12.07 З 7 30 км н/о +19.7 +15.0 74 +21 +21 комфорт 1018.3 948.5
20 12.07 З 7 30 км н/о +17.8 +16.1 90 +17 +17 1019.2 948.9
21 12.07 З 7 23 км н/о +17.1 +16.1 94 +16 +16 1019.7 949.2
22 12.07 З 6 22 км н/о +16.8 +15.8 94 +16 +16 1020.1 949.5
23 12.07 З 5 16 км н/о +16.6 +16.0 96 +16 +16 1020.4 949.7
00 13.07 З 4 30 км н/о +16.8 +14.9 89 +16 +16 1020.1 949.5
01 13.07 З 5 30 км н/о +16.9 +13.0 78 +16 +16 1019.6 949.0
02 13.07 З 6 16 км н/о +16.2 +15.4 95 +15 +15 1019.4 948.7
03 13.07 З 6 17 км н/о +16.3 +15.5 95 +15 +15 1018.9 948.3
04 13.07 З 6 15 км н/о +16.3 +15.8 97 +15 +15 1018.7 948.1
05 13.07 З 6 12 км н/о +16.1 +15.6 97 +15 +15 1018.8 948.1
06 13.07 З 6 15 км [макс. диам. градин 0 мм] 1/1 200 м
[Sc]
+16.0 +15.5 97 +15 +15 1019.0 948.3 +16.0
07 13.07 З 6 12 км н/о +16.9 +16.4 97 +16 +16 1019.2 948.7
08 13.07 З 7 15 км 3/3 300 м
[Sc]
+17.9 +16.6 92 +17 +18 1019.5 949.2
09 13.07 З 7 30 км [макс. диам. градин 0 мм] 1/1 200 м
[Sc]
+19.7 +16.4 81 +22 +24 комфорт 1019.3 949.5
10 13.07 З 7 30 км н/о +20.9 +16.2 74 +24 +24 комфорт 1018.9 949.4
11 13.07 З 7 25 км н/о +21.5 +16.8 75 +25 +25 комфорт 1019.1 949.7
12 13.07 З 5 30 км ясно +22.7 +16.3 67 +27 +38 душно 1018.9 949.8
13 13.07 З 7 30 км н/о +22.9 +16.7 68 +28 +28 душно 1018.5 949.5
14 13.07 З 8 30 км н/о +22.8 +16.8 69 +28 +28 душно 1018.3 949.3
15 13.07 З 8 30 км [макс. диам. градин 0 мм] ясно +22.3 +17.1 72 +27 +30 душно 1018.0 948.9
16 13.07 З 8 30 км н/о +22.1 +16.9 72 +26 +26 душно 1018.1 948.9
17 13.07 З 9 30 км н/о +21.2 +17.1 77 +25 +25 комфорт 1018.1 948.7
18 13.07 З 8 30 км [макс. диам. градин 0 мм] 4/4 200 м
[Cu med, cong]
+19.9 +16.5 81 +22 +22 комфорт 1018.4 948.7 +23.8
19 13.07 З 8 30 км н/о +18.6 +16.4 87 +19 +19 1018.9 948.8
20 13.07 З 8 30 км н/о +17.7 +16.0 90 +17 +17 1019.5 949.2
21 13.07 З 8 30 км н/о +17.9 +16.1 89 +17 +17 1019.8 949.5
22 13.07 З 8 16 км н/о +17.8 +16.5 92 +17 +17 1020.1 949.8
23 13.07 З 8 13 км н/о +17.8 +17.0 95 +17 +17 1020.3 950.0
00 14.07 З 9 30 км н/о +17.5 +16.7 95 +16 +16 1019.9 949.5
01 14.07 З 8 30 км н/о +17.6 +16.6 94 +16 +16 1019.3 949.0
02 14.07 З 9 3000 м н/о +17.3 +16.8 97 +16 +16 1018.8 948.4
03 14.07 З 8 16 км н/о +17.0 +16.7 98 +16 +16 1018.4 948.0
04 14.07 З 8 1500 м н/о +17.0 +16.9 99 +16 +16 1018.1 947.7
05 14.07 З 8 28 км н/о +16.6 +16.6 100 +15 +15 1018.2 947.7
06 14.07 З 8 28 км [макс. диам. градин 0 мм] 9/9 <50 м
[Cu Sc]
+16.7 +16.5 99 +15 +15 1018.2 947.7 +16.6
07 14.07 З 8 10 км н/о +17.2 +16.8 97 +16 +16 1018.3 948.0
08 14.07 З 10 1100 м н/о +16.9 +16.7 99 +15 +15 1018.8 948.3
09 14.07 З 9 27 км {морось} [макс. диам. градин 0 мм] 9/9 100 м
[Cu Sc]
+18.4 +17.1 92 +18 +18 1018.7 948.6
10 14.07 З 9 30 км н/о +19.2 +16.3 83 +20 +20 1018.9 949.0
11 14.07 СЗ 11 30 км н/о +20.7 +16.6 77 +23 +23 комфорт 1018.3 948.8
12 14.07 З 11 30 км [макс. диам. градин 0 мм] 5/5 300 м
[Cu Sc]
+21.6 +16.2 71 +25 +25 комфорт 1018.2 948.9
13 14.07 З 10 30 км н/о +21.8 +17.1 75 +26 +26 душно 1018.2 948.9
14 14.07 З 9 2100 м н/о +19.7 +18.5 93 +22 +22 комфорт 1018.3 948.6
15 14.07 З 9 2500 м слаб. морось [макс. диам. градин 0 мм] 10/10 <50 м
[Cu Sc]
+20.2 +18.7 91 +23 +23 комфорт 1018.0 948.4
16 14.07 З 9 1800 м н/о +19.5 +18.3 93 +21 +21 комфорт 1017.8 948.1
17 14.07 З 10 1100 м н/о +19.5 +19.1 98 +21 +21 комфорт 1017.4 947.7
18 14.07 З 9 500 м слаб. морось [макс. диам. градин 0 мм] 10/10 <50 м
[Cu Sc]
+18.9 +18.8 99 +20 +20 1017.4 947.6 +22.3 0.0
19 14.07 СЗ 8 1100 м осадки н/о +18.1 +18.1 100 +17 +17 1018.2 948.1
20 14.07 СЗ 9 2400 м осадки н/о +17.3 +17.3 100 +16 +16 1018.5 948.2
21 14.07 З 9 8000 м в посл. час осадки н/о +17.4 +17.4 100 +16 +16 1018.7 948.4
22 14.07 З 9 2900 м н/о +17.6 +17.6 100 +16 +16 1019.0 948.7
23 14.07 З 8 6000 м н/о +17.4 +17.4 100 +16 +16 1019.2 948.9
00 15.07 З 9 4600 м н/о +17.2 +17.1 99 +16 +16 1019.0 948.6 0.6
01 15.07 З 9 4100 м н/о +17.1 +16.9 99 +16 +16 1018.0 947.7
02 15.07 З 11 4000 м н/о +17.2 +17.0 99 +16 +16 1017.3 947.0
03 15.07 З 11 8000 м н/о +17.1 +16.9 99 +15 +15 1016.9 946.6
04 15.07 З 10 3400 м н/о +17.2 +16.9 98 +16 +16 1016.5 946.3
05 15.07 СЗ 9 11 км н/о +17.0 +16.8 99 +16 +16 1016.9 946.6
06 15.07 З 8 н/о [макс. диам. градин 0 мм] н/о +17.6 +17.4 99 +17 +17 1016.9 946.8 +16.8 0.7
07 15.07 СЗ 8 6000 м н/о +17.6 +17.3 98 +16 +16 1017.2 947.0
08 15.07 З 7 21 км н/о +18.8 +17.6 93 +19 +19 1017.2 947.3
09 15.07 З 7 25 км [макс. диам. градин 0 мм] 8/8 100 м
[Cu Sc]
+19.8 +17.6 87 +22 +22 комфорт 1017.4 947.8
10 15.07 З 8 14 км н/о +18.8 +18.6 99 +19 +19 1017.8 947.9
11 15.07 З 8 30 км н/о +20.3 +17.4 83 +23 +23 комфорт 1017.7 948.1
12 15.07 СЗ 7 30 км [макс. диам. градин 0 мм] 4/4 100 м
[Sc]
+22.3 +17.4 74 +27 +30 душно 1016.9 947.9
13 15.07 З 9 30 км н/о +22.0 +18.0 78 +27 +27 душно 1016.7 947.6
14 15.07 З 9 27 км н/о +21.7 +17.7 78 +26 +26 душно 1016.3 947.2
15 15.07 З 9 20 км [макс. диам. градин 0 мм] 5/5 100 м
[Cu Sc]
+21.0 +17.5 80 +24 +25 комфорт 1016.3 947.0
16 15.07 З 9 8000 м н/о +20.4 +17.8 85 +23 +23 комфорт 1016.2 946.8
17 15.07 СЗ 9 30 км н/о +19.6 +17.0 85 +21 +21 комфорт 1016.2 946.6
18 15.07 СЗ 10 20 км [макс. диам. градин 0 мм] 6/6 100 м
[Cu Sc]
+18.5 +17.0 91 +18 +18 1016.3 946.4 +23.2
19 15.07 З 10 18 км н/о +17.6 +17.0 96 +16 +16 1016.8 946.7
20 15.07 З 9 7000 м н/о +17.4 +16.8 96 +16 +16 1017.2 947.0
21 15.07 З 10 2200 м н/о +17.4 +17.0 97 +16 +16 1017.4 947.2
22 15.07 З 10 10 км н/о +17.2 +16.7 97 +16 +16 1017.8 947.5
23 15.07 З 10 7000 м н/о +16.8 +16.6 99 +15 +15 1018.0 947.6
00 16.07 З 9 7000 м н/о +16.9 +16.6 98 +15 +15 1017.7 947.3
01 16.07 З 9 14 км н/о +16.6 +16.0 96 +15 +15 1017.3 946.9
02 16.07 З 10 14 км н/о +16.6 +16.0 96 +15 +15 1016.8 946.4
03 16.07 З 10 10 км н/о +16.4 +15.9 97 +15 +15 1016.4 946.0
04 16.07 З 9 7000 м н/о +16.5 +16.0 97 +15 +15 1016.1 945.7
05 16.07 З 9 6000 м н/о +16.7 +16.1 96 +15 +15 1016.0 945.7
06 16.07 З 8 20 км [макс. диам. градин 0 мм] 5/5 300 м
[Sc]
+16.4 +15.4 94 +15 +15 1016.4 946.0 +16.3
07 16.07 З 9 13 км н/о +16.8 +16.0 95 +15 +15 1016.4 946.1
08 16.07 З 9 16 км н/о +17.8 +15.6 87 +17 +17 1016.4 946.3
09 16.07 СЗ 8 1300 м туман на расстоянии [макс. диам. градин 0 мм] 9/9 <50 м
[Sc]
+18.0 +16.4 90 +17 +17 1016.8 946.7
10 16.07 СЗ 8 17 км н/о +20.1 +16.6 80 +22 +22 комфорт 1016.7 947.1
11 16.07 З 8 30 км н/о +21.0 +15.9 73 +24 +24 комфорт 1016.6 947.2
12 16.07 З 9 30 км [макс. диам. градин 0 мм] 4/4 300 м
[Sc]
+20.8 +16.5 76 +24 +25 комфорт 1016.8 947.4
13 16.07 З 9 20 км н/о +20.3 +16.2 77 +23 +23 комфорт 1016.8 947.3
14 16.07 СЗ 9 30 км н/о +22.1 +15.9 68 +26 +26 душно 1016.1 947.0
15 16.07 З 10 20 км [макс. диам. градин 0 мм] 4/4 200 м
[Cu Sc]
+21.3 +16.1 72 +25 +25 комфорт 1015.9 946.7
16 16.07 З 9 16 км н/о +20.6 +15.9 74 +23 +23 комфорт 1016.3 946.9
17 16.07 СЗ 8 14 км н/о +19.4 +16.8 85 +21 +21 комфорт 1016.7 947.0
18 16.07 СЗ 8 15 км [макс. диам. градин 0 мм] 4/4 200 м
[Cu Sc]
+19.1 +16.3 84 +20 +20 1016.9 947.1 +22.1
19 16.07 З 9 13 км н/о +18.2 +16.1 88 +18 +18 1017.5 947.4
20 16.07 З 8 17 км н/о +17.2 +15.5 90 +16 +16 1018.1 947.7
21 16.07 З 8 10 км н/о +17.0 +16.2 95 +16 +16 1018.5 948.1
22 16.07 З 8 15 км н/о +16.7 +15.7 94 +15 +15 1019.2 948.6
23 16.07 З 7 7000 м н/о +17.0 +16.4 96 +16 +16 1019.5 949.0
00 17.07 З 7 10 км н/о +16.8 +16.2 96 +16 +16 1019.6 949.0
01 17.07 З 7 7000 м н/о +16.9 +16.4 97 +16 +16 1019.3 948.8
02 17.07 З 7 9000 м н/о +16.4 +15.9 97 +15 +15 1019.1 948.5
03 17.07 З 7 8000 м н/о +16.3 +15.8 97 +15 +15 1018.7 948.1
04 17.07 З 7 9000 м н/о +16.2 +16.0 99 +15 +15 1018.5 947.9
05 17.07 З 7 7000 м н/о +16.3 +16.1 99 +15 +15 1018.7 948.1
06 17.07 З 6 7000 м н/о +16.3 +16.1 99 +15 +15 1019.3 948.6 +16.1
07 17.07 З 6 10 км н/о +16.4 +16.2 99 +15 +15 1019.7 949.0
08 17.07 З 7 25 км н/о +18.0 +16.7 92 +17 +17 1019.8 949.5
09 17.07 З 8 18 км н/о +18.9 +16.0 83 +19 +19 1019.8 949.7

 

Местоположение метеостанции Тенерифе (Канарские Острова): широта 28.47 долгота -16.31 высота над уровнем моря 617 м.

В архиве по умолчанию представлена погода на Тенерифе за последнюю неделю. Архивные данные за месяц целиком и за предыдущие месяцы, начиная с января 2011 года, Вы можете получить, выбрав интересующий диапазон дат из раскрывающегося списка и нажав кнопку "Ввод!".


*Определитесь, кто Вы:
робот инопланетянин человек

Внимание! Время в таблицах - всемирное. Для получения местного времени необходимо прибавить поправку, которая равна 0 ч.

Смотрите также архив погоды в соседних городах и на ближайших метеорологических станциях:

Погода в Санта-Круз-де-Тенерифе (Канарские Острова) (6 км)
Погода в Тенерифе-Гуимаре (Канарские Острова) (18 км)
Погода в Пуэрто-де-ла-Крус (Канарские Острова) (24 км)
Погода в Обсерватории Izana (Канарские Острова) (27 км)
Погода в Аэропорту Рейна-София (Канарские Острова) (53 км)
Погода в Сан-Себастьян-де-ла-Гомера (Канарские Острова) (89 км)
Погода в Пуэрто-де-Могане (Канарские Острова) (90 км)
Погода в Лас-Пальмас-де-Гран-Канарии 2 (Канарские Острова) (95 км)
Погода в Лас-Пальмас-де-Гран-Канарии (Канарские Острова) (97 км)
Погода на Гомере (Канарские Острова) (101 км)

Пояснения к столбцам:

Ветер - указаны скорость ветра в м/с - средняя за 10 мин, порывы в срок и между сроками (в фигурных скобках) и направление, откуда дует ветер: С - северный, СВ - северо-восточный, В - восточный, ЮВ - юго-восточный, Ю - южный, ЮЗ - юго-западный, З - западный, СЗ - северо-западный.
Видимость - горизонтальная дальность видимости в метрах или километрах. При видимости от 1 до 10 км при отсутствии осадков обычно наблюдается дымка, при ухудшении видимости до 1 км и менее - туман. В сухую погоду видимость может ухудшаться дымом, пылью или мглою.
Явления - указаны атмосферные явления, наблюдавшиеся в срок или в последний час перед сроком; фигурными скобками обозначены явления, наблюдавшиеся между сроками (за 1-3 часа до срока); квадратными скобками обозначены град или гололедные отложения с указанием их диаметра в мм.
Облачность - указаны через наклонную черту общая и нижняя облачность в баллах и высота нижней границы облаков в метрах; квадратными скобками обозначены формы облаков: Ci - перистые, Cs - перисто-слоистые, Cc - перисто-кучевые, Ac - высококучевые, As - высокослоистые, Sc - слоисто-кучевые, Ns - слоисто-дождевые, Cu - кучевые, Cb - кучево-дождевые. Подробнее классификацию облаков см. в Атласе облаков (PDF).
T - Температура воздуха - температура, измеренная на высоте 2 м над землей.
Td - Температура точки росы - температура, при понижении до которой содержащийся в воздухе водяной пар достигнет насыщения.
f - Относительная влажность воздуха - влажноcть воздуха, измеренная на высоте 2 м над землей.
Te - Эффективная температура - температура, которую ощущает одетый по сезону человек в тени. Характеристика душности погоды. При расчете учитывается влияние влажности воздуха и скорости ветра на теплоощущения человека.
Tes - Эффективная температура на солнце - температура, которую ощущает человек, с поправкой на солнечный нагрев. Характеристика знойности погоды. Зависит от высоты солнца над горизонтом, облачности и скорости ветра. Ночью, в пасмурную погоду, а также при ветре 12 м/с и более поправка равна нулю.
P - Атмосферное давление - приведенное к уровню моря атмосферное давление.
Po - Атмосферное давление - измеренное на уровне метеостанции атмосферное давление.
Tmin - Минимальная температура - минимум температуры воздуха на высоте 2 м над землей.
Tmax - Максимальная температура - максимум температуры воздуха на высоте 2 м над землей.
R - Количество осадков - Количество выпавших осадков за период времени, мм. При наведении курсора мыши на число - период времени, за который выпало указанное количество осадков.
R24 - Количество осадков - Количество выпавших осадков за 24 часа, мм.
S - Снежный покров - Высота снежного покрова, см. При наведении курсора мыши на число - состояние снежного покрова и степень покрытия местности в баллах.